{"data":{"norad_id":61627,"intl_designator":"2024-191G","name":"STARLINK-32399","alt_names":[],"object_type":"PAYLOAD","status":"ACTIVE","operator":null,"country":"US","launch_date":"2024-10-23","launch_site_code":"AFETR","launch_vehicle":null,"mission":null,"orbit_class":"UNKNOWN","rcs_meters":null,"size_class":null,"mass_kg":null,"dimensions":null,"purposes":["comms"],"wikipedia_slug":null,"has_3d_model":false,"image_url":null,"decayed_at":null,"tle_current":{"epoch":"2026-05-25T04:49:34.152672Z","epoch_age_seconds":61626,"freshness":"FRESH","line1":"1 61627U 24191G   26145.20108973 -.00002957  00000+0 -97913-4 0  9994","line2":"2 61627  43.0046  74.9783 0001191 266.5346  93.5370 15.27594370 89325","mean_motion":15.2759437,"eccentricity":0.0001191,"inclination_deg":43.0046,"raan_deg":74.9783,"arg_perigee_deg":266.5346,"mean_anomaly_deg":93.537,"bstar":-9.7913e-5,"rev_number":8932,"period_min":94.265861951298,"perigee_km":482.18890528805,"apogee_km":483.82322956671,"semimajor_km":6861.1430674274,"source":"CELESTRAK","updated_at":"2026-05-25T13:38:19.407561Z"}}}